Flight Track Log - Related Links

Times and Time Zones

All times are in EDT time to prevent confusion due to time zone crossing. See the N441CX flight status page for this flight to view local times or setup timezone preferences in your user account.

Time Position Orientation Groundspeed Altitude Reporting Facility
EDT Latitude Longitude Course Direction KTS MPH feet Rate Location/Type
Fri 11:11:00 PM 46.1920 -102.2108 61° Northeast  Level FlightAware Approximate
Fri 11:12:00 PM 46.2214 -102.1346 61° Northeast  Level FlightAware Approximate
Fri 11:13:00 PM 46.2507 -102.0582 61° Northeast  Level FlightAware Approximate
Fri 11:14:00 PM 46.2805 -101.9821 60° Northeast  Level FlightAware Approximate
Fri 11:15:00 PM 46.3093 -101.9054 64° Northeast  Level FlightAware Approximate
Fri 11:16:00 PM 46.3333 -101.8259 90° East  Level FlightAware Approximate
Fri 11:16:10 PM 46.0772 -102.5253 61° Northeast 229 264 8,100  Level Minneapolis Center
Fri 11:17:00 PM 46.3651 -101.7533 54° Northeast  Level FlightAware Approximate
Fri 11:17:12 PM 46.0914 -102.4600 73° East 176 203 10,400  Level Minneapolis Center
Fri 11:18:00 PM 46.4005 -101.6823 54° Northeast  Level FlightAware Approximate
Fri 11:18:13 PM 46.1167 -102.3989 59° Northeast 176 203 12,100  Level Minneapolis Center
Fri 11:19:00 PM 46.4327 -101.6084 61° Northeast  Level FlightAware Approximate
Fri 11:19:14 PM 46.1428 -102.3325 60° Northeast 179 206 13,100  Level Minneapolis Center
Fri 11:20:00 PM 46.4622 -101.5318 61° Northeast  Level FlightAware Approximate
Fri 11:20:15 PM 46.1783 -102.2494 58° Northeast 210 242 13,100  Level Minneapolis Center
Fri 11:21:00 PM 46.4916 -101.4552 61° Northeast  Level FlightAware Approximate
Fri 11:21:16 PM 46.2192 -102.1586 57° Northeast 243 280 12,300  Level Minneapolis Center
Fri 11:22:17 PM 46.2603 -102.0572 60° Northeast 275 316 11,400 -639 Descending Minneapolis Center
Fri 11:23:18 PM 46.3000 -101.9642 58° Northeast 278 320 11,000 -197 Descending Minneapolis Center
Fri 11:24:19 PM 46.3369 -101.8808 57° Northeast 269 310 11,000  Level Minneapolis Center
Fri 11:25:20 PM 46.3667 -101.7989 62° Northeast 248 285 11,000  Level Minneapolis Center
Fri 11:26:21 PM 46.4039 -101.7033 61° Northeast 235 270 11,000  Level Minneapolis Center
Fri 11:27:22 PM 46.4347 -101.6200 62° Northeast 235 270 11,000  Level Minneapolis Center
Fri 11:28:23 PM 46.4664 -101.5361 61° Northeast 235 270 11,000  Level Minneapolis Center
Fri 11:29:24 PM 46.4992 -101.4519 60° Northeast 235 270 11,000  Level Minneapolis Center
Fri 11:30:25 PM 46.5331 -101.3614 61° Northeast 241 277 11,000  Level Minneapolis Center
Fri 11:31:26 PM 46.5697 -101.2742 59° Northeast 246 283 11,000  Level Minneapolis Center
Fri 11:32:27 PM 46.6014 -101.1889 62° Northeast 247 284 11,000  Level Minneapolis Center
Fri 11:33:28 PM 46.6336 -101.1081 60° Northeast 243 280 11,000  Level Minneapolis Center
Fri 11:34:29 PM 46.6661 -101.0242 61° Northeast 241 277 11,000 -836 Level Minneapolis Center
Fri 11:35:30 PM 46.7072 -100.9161 61° Northeast 250 288 9,300 -1,574 Descending Minneapolis Center
Fri 11:36:31 PM 46.7419 -100.8294 60° Northeast 259 298 7,800 -1,770 Descending Minneapolis Center
Fri 11:37:32 PM 46.7414 -100.7278 90° East 244 281 5,700 -1,475 Descending Minneapolis Center
Fri 11:38:33 PM 46.7250 -100.6533 108° East 185 213 4,800 -934 Descending Minneapolis Center
Fri 11:39:34 PM 46.7025 -100.6675 203° Southwest 146 168 3,800 -1,131 Descending Minneapolis Center
Fri 11:40:35 PM 46.7333 -100.6939 330° Northwest 131 151 2,500 -893 Descending Minneapolis Center
Fri 11:41:35 PM 46.7550 -100.7228 318° Northwest 118 136 2,000 -446 Descending Minneapolis Center
Fri 11:42:36 PM 46.7764 -100.7492 320° Northwest 98 113 1,600 -197 Descending Minneapolis Center
Fri 11:43:37 PM 46.7783 -100.7564 291° West 38 44 1,600  Level Minneapolis Center
Fri 11:44:38 PM 46.7781 -100.7600 264° West 17 20 1,600  Level Minneapolis Center
Fri 11:45:39 PM 46.7778 -100.7597 146° Southeast 6 7 1,600  Level Minneapolis Center

Login

Don't have an account? Register now (free) for customized features, flight alerts, and more!